{"data":{"norad_id":43187,"intl_designator":"2018-014H","name":"S-NET B","alt_names":[],"object_type":"PAYLOAD","status":"ACTIVE","operator":null,"country":"GER","launch_date":"2018-02-01","launch_site_code":"VOSTO","launch_vehicle":null,"mission":null,"orbit_class":"UNKNOWN","rcs_meters":null,"size_class":null,"mass_kg":null,"dimensions":null,"purposes":[],"wikipedia_slug":null,"has_3d_model":false,"image_url":null,"decayed_at":null,"tle_current":{"epoch":"2026-05-24T23:36:32.843808Z","epoch_age_seconds":69814,"freshness":"FRESH","line1":"1 43187U 18014H   26144.98371347  .00004086  00000+0  21363-3 0  9991","line2":"2 43187  97.5385  49.9068 0010774  93.6237 266.6228 15.16384407455248","mean_motion":15.16384407,"eccentricity":0.0010774,"inclination_deg":97.5385,"raan_deg":49.9068,"arg_perigee_deg":93.6237,"mean_anomaly_deg":266.6228,"bstar":0.00021363,"rev_number":45524,"period_min":94.96272800964,"perigee_km":509.35023447868,"apogee_km":524.20739908068,"semimajor_km":6894.9158167797,"source":"CELESTRAK","updated_at":"2026-05-25T13:37:55.790268Z"}}}